レモン彗星

C/2023 H5 ( Lemmon )

English version
Home page
Updated on October 1, 2025

---------------------------------------------------------------------

・ プロフィール

発見日 2023年4月19日
発見光度 20.2等
発見者 Mt. Lemmon Survey

・ 写真集

・ 軌道要素

Epoch 2025 May 5.0 TT = JDT 2460800.5
T 2025 June 30.25929 TT                                 Pike
q   4.3126021            (2000.0)            P               Q
z  -0.0001102      Peri.   60.09670     -0.42536722     +0.83574381
 +/-0.0000006      Node   159.47858     -0.07943515     -0.41670900
e   1.0004753      Incl.   97.85550     +0.90152803     +0.35761137
From 2195 observations 2022 Dec. 1-2025 Aug. 5, mean residual 0".5.

・ 星図

・ 光度変化

        m1 = 2.5 + 5 logΔ + 15.0 log r           [    ,-360]  (              〜2024年 7月 5日)
        m1 = 6.5 + 5 logΔ + 10.0 log r(t + 120)  [-360,    ]  (2024年 7月 5日〜              )

---------------------------------------------------------------------

軌道要素はM.P.E.C. 2025-P113に掲載されたものです。
星図はステラナビゲータ Ver.11 (アストロアーツ) で作成したものです。
光度グラフはComet for Windowsで作成したものです。

---------------------------------------------------------------------

Copyright(C) Seiichi Yoshida (comet@aerith.net). All rights reserved.